Location: Oklahoma City
(35.4680°N, 97.5160°W)
Time: 00:47:31
(UTC-06:00)

ISS - Visible Passes

Search period start: 13 February 2016 00:00
Search period end: 23 February 2016 00:00
Orbit: 398 x 408 km, 51.6° (Epoch: 13 February)

Date Brightness Start Highest point End Pass type
(mag) Time Alt. Az. Time Alt. Az. Time Alt. Az.
15 Feb -1.0 19:42:06 10° NNW 19:43:09 15° N 19:43:09 15° N visible
16 Feb -1.0 18:50:08 10° N 18:51:16 11° NNE 18:52:25 10° NE visible
16 Feb -0.3 20:24:57 10° NW 20:25:24 13° NW 20:25:24 13° NW visible
17 Feb -2.6 19:32:14 10° NNW 19:35:07 35° NNE 19:35:07 35° NNE visible
18 Feb -1.7 18:39:42 10° NNW 18:42:12 20° NNE 18:44:41 10° E visible
18 Feb -1.2 20:15:41 10° WNW 20:17:36 27° W 20:17:36 27° W visible
19 Feb -3.4 19:22:36 10° NW 19:25:51 86° SW 19:27:36 24° SE visible
20 Feb -0.4 20:07:11 10° W 20:08:58 14° SW 20:10:29 11° SSW visible
21 Feb -1.4 19:13:15 10° WNW 19:16:08 29° SW 19:18:59 10° SSE visible
